Wind_Speed
22 24 24 26 27 27 30 29 32 33 32 33 34 39 42 41 38 35 35 34 35 33 31 27 24 21 20 20 17 16 15 15 13 14 14 15 19 21 24 25 26 25 26
15 18 23 28 30 32 34 34 32 34 36 31 36 37 41 42 39 36 35 33 36 33 30 25 22 19 21 18 16 16 15 14 14 15 16 16 18 22 22 23 22 21 22
10 14 19 22 27 33 34 36 36 35 32 34 34 38 42 42 39 35 34 32 36 33 27 24 22 20 21 17 16 16 14 13 14 17 17 16 19 19 19 20 19 20 20
11 11 13 16 21 30 34 35 30 31 30 31 34 37 40 41 36 33 32 36 30 26 24 27 23 21 19 18 16 14 13 14 16 16 16 17 17 16 17 20 22 19 21
12 14 13 15 18 23 29 30 29 30 31 32 36 38 40 38 35 35 32 33 31 28 26 22 22 22 20 17 15 15 13 14 15 15 16 16 15 16 17 18 22 25 22
16 14 15 14 16 20 23 28 28 31 33 34 34 37 38 38 36 33 33 32 28 25 22 22 21 19 18 16 15 14 14 14 15 15 15 14 13 13 15 17 20 24 27
18 17 16 16 17 21 24 27 30 32 33 34 35 37 37 37 35 34 30 27 25 23 22 21 21 22 16 15 14 13 13 13 15 15 14 12 13 12 15 16 17 20 22
16 18 18 18 18 20 26 28 30 32 34 35 36 36 37 39 34 34 28 25 25 24 22 23 22 16 16 14 12 12 13 14 14 13 12 10 12 11 13 16 18 19 21
18 16 19 18 19 20 23 27 29 32 34 35 37 37 38 35 34 33 30 28 26 25 24 21 18 17 13 12 12 13 12 13 13 12 11 9 9 11 12 16 17 19 21
19 18 20 21 21 22 24 25 28 30 33 36 38 36 34 35 35 33 31 29 29 27 23 20 19 16 13 11 12 12 11 11 11 10 8 7 8 10 13 16 17 16 18
21 23 24 24 23 22 24 28 30 32 33 36 35 37 38 36 34 33 31 30 29 26 24 21 17 14 12 12 12 11 10 9 9 8 7 6 7 10 11 10 10 11 12
23 25 25 26 26 24 25 29 33 34 37 39 39 40 39 38 34 34 31 28 27 23 20 18 16 13 13 12 10 9 9 8 5 4 4 4 4 5 6 7 8 10 10
32 29 26 25 29 27 24 29 35 36 38 41 43 44 44 40 37 33 32 29 26 24 21 17 14 14 11 8 9 8 6 4 3 2 2 1 3 4 5 6 7 8 9
35 32 27 26 28 28 26 29 36 39 41 44 48 48 45 43 40 38 35 32 28 23 19 16 15 11 9 8 7 5 5 4 3 2 1 1 2 4 5 6 6 9 7
37 35 27 28 28 29 29 30 37 40 42 44 48 52 52 48 43 37 34 31 26 20 17 16 13 12 11 8 7 5 5 6 4 3 2 1 2 4 4 5 5 5 5
36 36 30 28 31 31 32 33 36 37 41 41 46 49 47 39 31 26 26 24 20 17 17 16 16 13 11 9 8 7 6 5 5 4 2 1 1 2 4 5 5 4 5
34 34 30 29 34 36 37 38 37 32 36 36 40 39 33 30 31 33 27 23 22 19 18 18 15 14 11 10 9 8 7 6 6 5 4 2 2 3 4 5 5 6 7
36 32 28 30 37 37 38 39 38 41 39 33 29 32 30 37 35 31 29 25 25 19 18 16 15 14 12 11 10 8 7 6 6 5 4 3 3 3 6 4 5 6 7
33 31 28 30 36 37 37 38 38 40 39 42 40 35 37 37 32 29 29 26 24 21 18 16 16 14 13 12 11 9 8 7 6 6 5 5 4 5 6 5 6 7 7
28 28 28 32 35 35 37 39 39 41 47 49 48 47 44 39 37 34 27 23 21 18 18 18 17 16 14 12 11 9 8 7 6 6 7 6 7 7 6 6 7 6 6
22 21 29 33 33 36 37 39 42 45 48 50 48 43 40 40 39 34 27 23 18 18 19 20 19 17 15 13 11 10 9 8 8 8 8 7 7 7 6 6 6 6 6
18 26 30 31 34 37 39 42 46 48 49 47 46 43 42 39 37 31 26 23 20 19 19 19 19 17 15 13 11 11 9 9 9 8 8 8 7 6 5 4 5 7 8
25 28 31 33 37 40 42 45 49 49 46 44 44 43 37 35 33 30 26 23 21 20 19 18 18 17 15 13 12 12 11 10 9 8 8 8 8 7 6 6 5 7 9
26 30 33 36 39 41 45 46 45 45 44 44 42 38 35 33 31 27 25 23 20 18 19 19 18 16 15 13 13 12 11 10 9 8 8 8 8 7 7 6 5 6 9
27 30 32 36 39 41 41 39 39 40 41 41 39 36 34 32 29 27 24 22 20 20 20 19 18 17 16 15 14 12 11 10 9 9 9 9 8 7 7 6 7 8 11
28 30 32 33 34 36 38 38 38 38 38 38 36 35 33 31 28 26 25 24 22 21 20 18 17 16 16 14 14 14 13 11 10 10 10 10 9 9 8 7 8 10 12
Wind_Direction
247 240 239 239 237 238 241 239 234 235 240 226 225 222 220 220 222 223 224 228 225 222 221 221 231 238 241 241 251 261 268 273 269 282 292 300 308 316 323 324 328 327 327
250 245 247 244 236 235 239 241 237 234 229 233 228 222 218 216 219 218 219 223 223 222 214 220 232 240 242 245 255 262 271 272 276 280 290 300 309 321 326 331 335 334 335
277 264 256 248 237 235 235 235 237 234 230 230 231 223 219 215 215 215 219 227 220 214 216 227 234 234 237 248 254 264 268 272 277 286 295 304 312 322 328 332 339 338 339
294 280 265 254 240 233 235 236 244 239 236 234 230 222 218 215 214 215 217 215 211 217 222 227 228 227 236 243 253 260 264 270 281 289 295 304 315 320 328 334 335 344 345
308 293 274 263 257 250 243 240 242 230 234 234 225 217 214 213 214 210 216 217 217 218 219 215 218 223 231 244 251 257 263 271 282 287 295 303 314 320 331 337 334 337 343
314 300 287 267 255 258 251 239 232 229 229 229 222 218 211 210 211 213 214 208 216 214 218 211 220 226 237 242 253 256 267 273 280 285 291 298 305 316 327 335 337 343 342
312 308 291 279 259 257 251 244 236 232 226 221 216 211 210 210 208 212 207 210 211 207 209 214 222 228 232 241 248 264 270 272 275 282 285 288 297 313 321 329 335 334 335
308 306 303 286 265 257 249 241 236 228 220 217 211 206 209 205 205 204 203 208 199 207 208 217 223 228 233 244 262 267 271 277 278 280 281 286 295 309 318 322 326 325 326
299 303 300 296 278 257 256 246 236 229 222 215 211 210 205 197 202 202 205 196 201 204 210 215 223 228 238 250 257 267 271 272 273 275 284 289 297 311 314 315 317 321 326
289 297 299 293 284 266 253 254 240 230 223 215 210 209 202 200 198 202 198 201 198 201 204 210 218 225 238 248 259 263 262 265 271 271 279 288 288 298 306 310 313 314 321
281 291 294 293 285 273 254 244 242 229 219 214 210 200 197 199 199 199 201 201 202 200 202 206 213 224 238 250 248 257 258 260 265 265 273 285 292 303 310 326 330 331 327
275 281 283 288 281 274 254 242 235 225 215 210 203 196 193 196 200 197 197 200 201 203 200 203 208 227 240 237 243 243 247 253 244 245 261 295 314 321 322 327 332 333 334
277 275 271 274 277 271 253 239 230 220 213 207 201 193 191 191 192 197 194 195 197 194 194 199 211 222 222 229 232 231 240 235 231 231 258 297 319 329 337 341 347 345 347
279 274 266 263 267 262 247 236 231 221 210 205 200 196 192 189 189 187 185 186 187 185 189 202 206 200 203 212 214 210 206 209 203 199 226 311 354 352 358 359 5 356 352
271 271 265 258 252 253 241 232 228 226 222 212 208 202 195 189 189 187 184 179 177 184 186 190 185 180 181 185 186 185 179 179 178 179 153 46 12 5 10 11 18 16 360
265 265 259 252 241 236 230 220 222 225 218 215 211 204 195 191 175 179 183 178 172 181 182 185 181 179 178 180 179 177 171 166 171 164 149 136 74 35 8 14 19 29 10
261 263 255 247 233 224 217 212 204 203 210 208 212 202 192 185 181 175 175 181 178 173 179 179 177 176 177 174 175 174 173 164 160 159 153 142 99 65 47 31 27 27 21
260 252 247 239 227 217 212 207 204 196 181 175 186 185 180 175 174 180 180 173 159 163 174 177 175 173 171 170 172 169 162 158 152 145 144 132 108 91 85 56 39 43 33
241 231 228 227 220 214 207 201 196 189 177 166 166 168 170 175 177 179 168 170 164 169 173 169 170 167 170 169 169 167 159 157 149 144 137 124 112 97 89 79 57 57 62
224 221 218 211 205 200 197 190 184 181 171 165 165 165 166 166 160 159 158 167 168 168 170 171 169 170 171 168 166 161 152 144 139 136 131 126 117 104 92 87 74 58 57
208 210 207 199 193 190 182 176 174 169 163 161 163 161 165 166 161 161 162 163 167 173 174 173 169 170 170 167 164 160 159 152 151 147 140 134 124 123 105 90 79 76 77
198 193 188 182 178 175 174 171 163 161 159 159 157 158 162 161 157 161 162 159 165 169 171 170 167 166 165 163 158 156 152 149 148 145 141 136 135 134 136 128 94 85 84
171 169 168 164 166 163 156 155 159 161 160 159 156 158 161 158 157 161 159 159 162 164 166 168 166 164 163 160 157 155 152 149 144 146 148 145 139 139 139 126 111 103 110
160 155 151 153 154 155 157 158 159 159 157 155 156 158 157 159 160 159 160 161 162 160 157 156 159 160 155 153 152 150 146 145 150 153 155 156 152 147 141 141 141 130 127
149 148 147 147 151 152 153 152 152 154 153 154 155 157 160 160 160 160 161 162 160 158 156 158 157 156 157 158 153 150 149 147 146 151 154 151 153 153 151 149 145 141 139
135 138 141 144 144 146 147 148 150 152 154 157 158 160 161 161 161 162 162 161 160 158 154 153 156 156 158 154 155 153 147 143 145 147 147 143 144 145 146 150 149 147 143
Height
1406 1407 1408 1409 1410 1412 1413 1415 1418 1420 1426 1430 1436 1440 1444 1449 1454 1460 1465 1470 1473 1477 1481 1485 1489 1491 1493 1494 1496 1497 1495 1496 1496 1495 1491 1489 1484 1481 1477 1473 1468 1463 1458
1400 1400 1400 1400 1401 1402 1404 1406 1410 1413 1418 1425 1429 1433 1437 1441 1445 1452 1458 1462 1466 1470 1475 1478 1483 1485 1489 1490 1490 1492 1490 1489 1489 1488 1486 1483 1480 1477 1472 1469 1464 1460 1456
1393 1393 1392 1392 1393 1394 1397 1399 1401 1407 1413 1417 1421 1425 1428 1433 1438 1445 1452 1457 1461 1465 1469 1473 1474 1479 1484 1485 1486 1486 1486 1484 1482 1481 1479 1478 1475 1472 1469 1467 1462 1457 1453
1389 1388 1388 1388 1389 1389 1391 1394 1397 1402 1406 1409 1414 1417 1422 1426 1432 1440 1446 1451 1455 1460 1465 1467 1470 1476 1478 1481 1481 1480 1480 1480 1478 1475 1474 1473 1472 1470 1466 1462 1459 1456 1450
1384 1383 1382 1382 1383 1384 1385 1387 1390 1393 1398 1402 1406 1410 1416 1422 1427 1433 1439 1446 1450 1455 1459 1464 1468 1471 1474 1475 1475 1475 1474 1474 1472 1471 1471 1470 1468 1466 1463 1459 1455 1452 1448
1380 1378 1377 1377 1377 1378 1379 1380 1382 1385 1390 1394 1399 1405 1411 1416 1422 1429 1434 1440 1445 1450 1455 1460 1463 1467 1468 1469 1469 1470 1470 1469 1468 1467 1466 1465 1464 1463 1460 1457 1453 1449 1444
1375 1374 1373 1373 1372 1372 1373 1375 1377 1379 1383 1387 1392 1398 1405 1411 1418 1425 1431 1436 1441 1445 1451 1455 1459 1461 1462 1464 1464 1464 1465 1464 1465 1464 1463 1462 1459 1457 1455 1454 1452 1450 1446
1373 1370 1369 1368 1367 1367 1367 1369 1372 1375 1377 1382 1387 1393 1399 1406 1414 1421 1427 1432 1438 1442 1447 1451 1454 1455 1457 1459 1460 1460 1460 1461 1460 1459 1458 1458 1456 1454 1453 1451 1449 1447 1445
1370 1368 1365 1364 1362 1362 1363 1364 1367 1370 1374 1376 1383 1388 1393 1402 1410 1415 1421 1426 1432 1437 1442 1445 1449 1452 1455 1456 1457 1457 1457 1457 1456 1455 1454 1453 1454 1452 1450 1449 1448 1446 1441
1365 1363 1361 1359 1357 1357 1358 1360 1363 1366 1370 1375 1379 1385 1392 1399 1404 1411 1415 1421 1425 1431 1436 1440 1444 1448 1451 1453 1454 1454 1454 1453 1453 1453 1451 1450 1450 1448 1448 1446 1445 1443 1442
1358 1356 1355 1354 1351 1352 1354 1355 1357 1361 1365 1371 1377 1381 1388 1395 1400 1407 1412 1417 1423 1426 1430 1435 1440 1444 1446 1449 1450 1451 1451 1451 1450 1449 1449 1449 1448 1446 1446 1444 1442 1439 1440
1349 1348 1349 1349 1344 1346 1349 1351 1352 1356 1360 1364 1371 1378 1385 1390 1396 1402 1409 1416 1420 1424 1427 1431 1436 1439 1442 1445 1446 1448 1449 1448 1447 1447 1447 1447 1446 1445 1444 1442 1441 1439 1436
1340 1341 1342 1341 1338 1339 1342 1345 1347 1350 1354 1358 1365 1368 1377 1385 1389 1399 1403 1410 1417 1420 1424 1430 1432 1436 1438 1440 1443 1444 1445 1446 1446 1446 1447 1445 1446 1445 1444 1442 1439 1438 1437
1329 1331 1333 1333 1331 1331 1333 1338 1341 1342 1346 1351 1356 1362 1371 1379 1385 1391 1398 1403 1411 1417 1421 1427 1430 1432 1435 1438 1440 1441 1441 1444 1445 1445 1446 1445 1444 1444 1443 1442 1440 1437 1438
1319 1318 1322 1322 1322 1322 1326 1330 1334 1338 1341 1343 1351 1357 1360 1369 1379 1388 1395 1400 1407 1413 1419 1425 1428 1430 1432 1436 1438 1439 1440 1442 1443 1444 1443 1444 1445 1445 1443 1442 1439 1438 1438
1306 1306 1310 1313 1313 1315 1320 1323 1329 1334 1337 1340 1346 1354 1363 1372 1382 1392 1395 1403 1406 1410 1416 1422 1426 1428 1431 1433 1435 1438 1439 1439 1442 1442 1443 1443 1442 1442 1443 1442 1439 1438 1438
1296 1296 1298 1302 1306 1308 1313 1317 1320 1331 1337 1336 1344 1356 1366 1367 1376 1390 1397 1399 1403 1409 1415 1421 1423 1425 1430 1432 1434 1436 1437 1438 1439 1440 1440 1443 1442 1441 1442 1442 1441 1441 1439
1287 1287 1290 1294 1297 1301 1305 1311 1317 1324 1325 1331 1349 1356 1365 1374 1382 1390 1390 1397 1402 1409 1414 1418 1421 1424 1428 1430 1433 1435 1436 1437 1439 1439 1441 1442 1442 1441 1441 1443 1442 1441 1441
1276 1278 1281 1287 1292 1297 1302 1309 1314 1322 1322 1328 1344 1355 1364 1374 1380 1384 1388 1397 1401 1406 1411 1415 1419 1423 1427 1429 1431 1434 1434 1437 1439 1440 1441 1441 1442 1442 1442 1443 1443 1442 1442
1269 1271 1275 1281 1287 1294 1300 1305 1310 1317 1321 1327 1338 1346 1357 1368 1376 1383 1389 1398 1400 1404 1409 1413 1417 1421 1426 1428 1430 1433 1435 1437 1439 1441 1441 1442 1442 1444 1444 1444 1444 1445 1443
1264 1268 1273 1278 1282 1290 1296 1303 1307 1317 1323 1328 1338 1347 1357 1364 1374 1383 1389 1393 1398 1404 1409 1413 1415 1420 1424 1427 1429 1431 1434 1436 1439 1440 1440 1442 1442 1445 1446 1446 1445 1446 1444
1262 1269 1274 1276 1281 1289 1295 1301 1308 1317 1324 1333 1340 1351 1360 1368 1373 1383 1390 1390 1398 1405 1409 1412 1415 1419 1424 1427 1428 1431 1433 1436 1439 1440 1442 1442 1443 1445 1447 1448 1447 1446 1447
1267 1271 1274 1278 1283 1291 1298 1304 1310 1318 1328 1337 1346 1355 1364 1369 1375 1383 1388 1393 1400 1404 1408 1411 1415 1420 1423 1426 1428 1431 1434 1437 1438 1441 1442 1443 1444 1446 1448 1448 1448 1448 1449
1270 1276 1277 1283 1291 1296 1299 1306 1316 1324 1332 1340 1349 1359 1364 1370 1377 1384 1389 1395 1400 1404 1408 1412 1416 1420 1423 1427 1430 1432 1435 1437 1439 1441 1442 1445 1445 1447 1448 1448 1449 1450 1451
1280 1283 1287 1293 1297 1302 1307 1315 1322 1331 1338 1346 1354 1360 1367 1374 1380 1385 1390 1396 1401 1405 1409 1412 1416 1420 1424 1428 1430 1432 1435 1437 1439 1443 1444 1444 1446 1447 1448 1450 1450 1451 1452
1290 1292 1295 1302 1306 1311 1317 1323 1330 1336 1342 1351 1358 1365 1370 1375 1380 1386 1391 1396 1401 1406 1410 1414 1418 1421 1425 1428 1431 1434 1436 1437 1441 1443 1444 1445 1447 1448 1449 1451 1452 1453 1454